User: anonymous
Location: Unspecified
(0.0000°N, 0.0000°E)
Time: 10:20:56
(UTC+00:00)
Language:

STSS DEMO 2 (USA 209) - Orbit

View from above orbital plane
View from above orbital plane
View from above satellite
View from above satellite

Ground track
Ground track

The orbit data is extracted from the following two-line orbital elements,

1 35938U 09052B   14170.90739269 0.00000000  00000-0  00000-0 0    05
2 35938  57.9846  99.4653 0018652 237.6392 122.3608 12.79127781    06
Epoch (UTC): 19 June 2014 21:46:38
Eccentricity: 0.0018652
inclination: 57.9846°
perigee height: 1330 km
apogee height: 1359 km
right ascension of ascending node: 99.4653°
argument of perigee: 237.6392°
revolutions per day: 12.79127781
mean anomaly at epoch: 122.3608°
orbit number at epoch: 0

The dashed part of the orbit path shows where the satellite is in the earth's shadow,  

DLR